Precipitable_Water
0.43 0.36 0.30 0.32 0.38 0.39 0.37 0.36 0.33 0.38 0.45 0.44 0.41 0.43 0.50 0.62 0.69 0.65 0.66 0.66 0.59 0.74 0.80 0.85 0.90 0.95 0.95 0.99 1.04 1.10 1.14 1.18 1.11 1.01 1.07 1.10 1.11 1.20 1.25 1.29 1.21 1.12 1.02 0.98
0.37 0.31 0.39 0.42 0.43 0.40 0.40 0.36 0.37 0.42 0.45 0.43 0.40 0.39 0.47 0.59 0.59 0.67 0.66 0.65 0.66 0.66 0.76 0.81 0.85 0.90 0.89 0.89 0.94 1.00 1.06 1.13 1.14 1.04 1.05 1.10 1.11 1.16 1.21 1.19 1.11 1.04 0.96 0.90
0.31 0.36 0.43 0.42 0.42 0.39 0.39 0.36 0.38 0.39 0.44 0.43 0.38 0.34 0.38 0.49 0.60 0.67 0.73 0.74 0.71 0.67 0.64 0.72 0.76 0.82 0.88 0.90 0.92 0.95 1.01 1.04 1.09 1.08 1.05 1.10 1.15 1.19 1.16 1.12 1.05 0.97 0.90 0.85
0.34 0.40 0.39 0.39 0.38 0.41 0.34 0.43 0.42 0.40 0.35 0.26 0.33 0.22 0.30 0.38 0.44 0.55 0.63 0.70 0.71 0.73 0.74 0.72 0.74 0.78 0.83 0.85 0.93 1.00 1.04 1.05 1.07 1.09 1.05 1.04 1.08 1.10 1.16 1.14 1.04 0.93 0.90 0.83
0.31 0.37 0.37 0.36 0.38 0.43 0.38 0.45 0.43 0.41 0.34 0.31 0.29 0.23 0.26 0.33 0.35 0.38 0.51 0.63 0.70 0.74 0.77 0.73 0.73 0.78 0.89 0.95 0.95 1.01 1.07 1.09 1.11 1.12 1.15 1.10 1.12 1.22 1.23 1.16 0.98 0.89 0.87 0.82
0.34 0.44 0.42 0.41 0.44 0.44 0.45 0.43 0.42 0.41 0.37 0.27 0.31 0.28 0.25 0.29 0.34 0.40 0.49 0.55 0.65 0.71 0.78 0.83 0.85 0.86 0.88 0.95 1.02 1.06 1.09 1.11 1.17 1.22 1.18 1.14 1.15 1.21 1.17 1.06 0.88 0.87 0.84 0.80
0.29 0.33 0.41 0.44 0.36 0.42 0.42 0.36 0.26 0.25 0.26 0.23 0.34 0.30 0.28 0.33 0.39 0.40 0.43 0.51 0.58 0.68 0.75 0.79 0.82 0.85 0.87 0.90 0.96 1.05 1.10 1.09 1.16 1.23 1.23 1.14 1.13 1.22 1.17 0.97 0.85 0.86 0.81 0.78
0.20 0.20 0.32 0.40 0.38 0.34 0.37 0.35 0.26 0.18 0.19 0.22 0.32 0.23 0.27 0.37 0.40 0.42 0.46 0.51 0.53 0.57 0.66 0.72 0.79 0.84 0.85 0.88 0.94 1.03 1.09 1.09 1.13 1.11 1.08 1.11 1.17 1.21 1.15 0.95 0.92 0.84 0.82 0.84
0.20 0.20 0.35 0.40 0.43 0.41 0.35 0.32 0.39 0.30 0.31 0.24 0.25 0.27 0.31 0.33 0.34 0.40 0.43 0.52 0.50 0.53 0.55 0.62 0.72 0.80 0.84 0.86 0.94 1.01 1.03 1.04 1.05 1.06 1.06 1.09 1.18 1.14 1.01 1.02 0.91 0.87 0.89 0.88
0.26 0.19 0.30 0.39 0.45 0.44 0.39 0.44 0.30 0.31 0.20 0.18 0.22 0.23 0.22 0.28 0.32 0.41 0.38 0.45 0.52 0.51 0.54 0.55 0.61 0.72 0.81 0.87 0.90 0.99 1.05 0.96 1.05 1.03 1.03 1.07 1.11 1.08 1.06 0.98 0.92 0.92 0.93 0.92
0.31 0.25 0.25 0.37 0.34 0.31 0.36 0.34 0.33 0.34 0.30 0.22 0.20 0.23 0.29 0.31 0.33 0.36 0.40 0.40 0.39 0.46 0.47 0.50 0.57 0.65 0.74 0.81 0.86 0.91 0.96 1.02 1.00 0.97 0.99 1.01 1.00 1.01 1.01 1.01 0.99 0.98 0.95 0.96
0.32 0.27 0.21 0.23 0.35 0.41 0.38 0.33 0.32 0.28 0.24 0.29 0.26 0.24 0.37 0.35 0.37 0.38 0.40 0.42 0.42 0.44 0.49 0.54 0.60 0.69 0.73 0.79 0.85 0.89 1.02 1.00 0.94 0.93 0.97 0.97 0.98 1.00 1.04 1.03 1.00 0.96 0.94 1.00
0.32 0.26 0.20 0.20 0.27 0.34 0.32 0.32 0.32 0.31 0.31 0.26 0.24 0.25 0.40 0.38 0.35 0.37 0.35 0.41 0.44 0.48 0.49 0.54 0.60 0.64 0.71 0.78 0.84 0.91 0.98 1.01 1.00 1.02 1.03 1.05 1.07 1.06 1.03 0.99 1.03 0.92 0.93 0.84
0.36 0.28 0.22 0.18 0.19 0.24 0.23 0.25 0.27 0.28 0.26 0.28 0.29 0.31 0.35 0.33 0.34 0.34 0.32 0.38 0.40 0.41 0.45 0.53 0.58 0.63 0.71 0.75 0.83 0.91 0.97 1.01 1.05 1.08 1.07 1.05 1.04 1.01 0.98 0.97 0.98 0.84 0.75 0.70
0.36 0.27 0.28 0.27 0.28 0.28 0.26 0.26 0.31 0.30 0.30 0.27 0.29 0.28 0.32 0.34 0.34 0.31 0.32 0.34 0.37 0.40 0.44 0.50 0.60 0.65 0.72 0.80 0.88 0.95 1.00 1.01 1.02 1.01 1.00 1.00 0.99 0.96 0.97 0.91 0.78 0.69 0.71 0.61
0.39 0.29 0.30 0.27 0.31 0.31 0.28 0.29 0.31 0.33 0.32 0.30 0.29 0.24 0.32 0.36 0.36 0.34 0.34 0.33 0.33 0.36 0.41 0.50 0.60 0.72 0.77 0.85 0.89 0.92 0.95 0.95 0.96 0.95 0.95 0.89 0.87 0.93 0.82 0.68 0.65 0.66 0.57 0.56
0.37 0.32 0.29 0.24 0.31 0.32 0.25 0.28 0.29 0.29 0.31 0.29 0.23 0.25 0.32 0.31 0.30 0.31 0.33 0.35 0.35 0.36 0.43 0.51 0.59 0.70 0.80 0.83 0.86 0.86 0.91 0.91 0.86 0.85 0.80 0.78 0.72 0.63 0.57 0.59 0.61 0.55 0.59 0.64
0.40 0.35 0.32 0.27 0.31 0.22 0.28 0.37 0.35 0.31 0.30 0.29 0.24 0.24 0.27 0.27 0.30 0.33 0.35 0.39 0.43 0.47 0.51 0.56 0.61 0.67 0.74 0.81 0.83 0.86 0.84 0.80 0.75 0.72 0.70 0.64 0.59 0.57 0.58 0.62 0.60 0.64 0.60 0.56
0.50 0.39 0.31 0.27 0.26 0.29 0.30 0.33 0.32 0.30 0.21 0.24 0.21 0.23 0.28 0.33 0.37 0.37 0.43 0.45 0.46 0.49 0.51 0.53 0.58 0.62 0.67 0.70 0.73 0.73 0.70 0.66 0.64 0.61 0.59 0.61 0.59 0.57 0.62 0.63 0.60 0.57 0.53 0.46
0.51 0.47 0.36 0.32 0.25 0.21 0.28 0.36 0.40 0.35 0.16 0.30 0.26 0.26 0.29 0.34 0.25 0.30 0.42 0.45 0.46 0.48 0.50 0.51 0.53 0.55 0.57 0.59 0.62 0.61 0.57 0.57 0.55 0.56 0.57 0.58 0.60 0.62 0.59 0.57 0.53 0.47 0.40 0.36
0.40 0.39 0.32 0.31 0.29 0.31 0.38 0.39 0.40 0.25 0.22 0.26 0.26 0.27 0.32 0.30 0.33 0.39 0.44 0.45 0.48 0.51 0.53 0.53 0.52 0.51 0.53 0.56 0.58 0.55 0.54 0.54 0.58 0.59 0.60 0.57 0.57 0.58 0.54 0.48 0.42 0.38 0.34 0.31
0.40 0.36 0.34 0.34 0.29 0.26 0.46 0.43 0.32 0.34 0.37 0.31 0.30 0.33 0.34 0.37 0.38 0.39 0.41 0.45 0.48 0.48 0.48 0.49 0.49 0.50 0.51 0.54 0.55 0.53 0.55 0.57 0.56 0.53 0.53 0.57 0.56 0.49 0.43 0.39 0.36 0.33 0.30 0.26
0.42 0.44 0.37 0.37 0.34 0.46 0.49 0.45 0.45 0.44 0.42 0.34 0.33 0.37 0.39 0.37 0.37 0.39 0.40 0.42 0.43 0.44 0.44 0.45 0.46 0.45 0.47 0.50 0.52 0.49 0.51 0.52 0.54 0.57 0.56 0.47 0.43 0.40 0.37 0.31 0.28 0.23 0.19 0.16
0.50 0.59 0.46 0.44 0.45 0.48 0.52 0.53 0.51 0.50 0.46 0.43 0.39 0.40 0.41 0.37 0.39 0.38 0.39 0.39 0.41 0.42 0.41 0.43 0.44 0.46 0.48 0.51 0.51 0.51 0.54 0.57 0.54 0.47 0.43 0.40 0.35 0.30 0.26 0.23 0.20 0.18 0.17 0.17
0.48 0.51 0.47 0.45 0.52 0.52 0.58 0.62 0.58 0.56 0.55 0.47 0.44 0.43 0.41 0.41 0.38 0.39 0.40 0.42 0.42 0.42 0.44 0.45 0.46 0.48 0.49 0.51 0.52 0.54 0.55 0.50 0.44 0.40 0.35 0.30 0.26 0.23 0.22 0.20 0.18 0.18 0.19 0.19
0.53 0.49 0.42 0.43 0.53 0.51 0.54 0.64 0.68 0.59 0.52 0.47 0.45 0.45 0.46 0.44 0.42 0.44 0.44 0.46 0.46 0.46 0.47 0.47 0.49 0.50 0.52 0.54 0.53 0.50 0.46 0.40 0.34 0.30 0.27 0.25 0.23 0.22 0.19 0.17 0.17 0.20 0.18 0.17
Wind_Speed
4 3 4 5 6 5 5 5 5 6 5 4 4 5 8 7 6 6 6 7 9 11 14 16 17 17 18 16 15 13 12 13 13 13 12 12 11 11 11 11 10 10 10 10
4 6 5 4 3 5 6 7 5 5 4 6 4 5 6 9 9 8 8 9 10 11 13 14 16 16 16 16 15 13 13 14 14 13 13 12 12 12 11 11 11 11 11 12
6 5 4 5 5 5 4 5 5 5 3 3 4 5 5 7 10 9 10 10 11 13 14 15 16 16 16 16 15 14 14 14 14 14 14 13 12 12 12 12 12 12 13 13
8 7 7 6 7 6 4 5 4 3 3 3 4 4 5 7 10 12 13 13 13 14 15 15 16 17 16 17 16 16 15 15 15 16 15 15 15 14 14 14 13 14 15 15
7 6 6 7 8 7 6 4 4 3 3 3 3 4 5 4 9 13 15 16 16 16 17 17 17 17 16 16 16 17 17 17 17 18 18 17 17 17 16 16 15 16 16 17
10 7 7 7 7 7 6 4 3 3 3 4 4 5 4 5 6 6 13 17 19 19 19 19 18 18 17 17 17 17 18 18 18 19 19 19 19 18 17 18 17 18 18 19
10 10 9 9 8 7 7 4 5 5 4 5 3 5 9 9 10 10 10 13 17 21 22 21 21 20 19 19 19 19 18 18 19 20 21 21 21 21 20 19 19 19 20 21
11 10 12 11 11 10 8 8 7 6 6 6 6 7 8 9 11 11 11 11 13 17 21 22 22 21 21 20 20 19 20 20 19 20 21 21 22 22 21 21 20 21 22 22
10 11 9 11 10 10 10 10 8 6 7 7 8 10 12 9 9 10 11 9 10 12 15 19 21 22 21 21 20 20 19 20 20 20 21 22 22 22 22 22 22 22 22 22
12 8 10 11 11 9 11 9 8 8 9 10 8 9 9 8 8 7 8 10 10 11 13 15 17 20 20 21 21 21 21 20 20 21 22 22 22 22 22 22 22 22 22 23
14 10 10 10 13 14 11 12 9 9 10 10 10 9 8 8 8 8 8 9 9 10 11 13 15 17 19 20 21 21 20 20 20 21 21 21 21 22 22 21 21 22 22 24
17 11 12 14 12 13 14 14 12 12 12 12 13 14 13 11 10 11 12 11 11 10 11 13 14 16 18 19 20 21 21 20 19 18 18 19 19 20 21 22 22 22 23 26
18 13 13 12 12 14 15 15 13 12 12 15 15 14 11 14 13 13 15 14 14 14 15 15 15 16 17 19 20 21 21 20 19 19 19 19 19 20 19 23 23 21 25 29
17 16 14 15 14 11 13 16 16 15 13 13 14 16 16 15 14 14 14 14 14 15 16 18 18 18 18 18 19 19 19 19 20 19 19 19 19 19 21 22 21 25 29 29
18 16 15 15 15 14 14 13 14 16 16 14 16 16 16 16 15 15 15 16 18 18 17 17 18 18 18 18 18 18 19 19 18 19 19 19 19 21 22 20 23 29 28 30
22 19 16 16 13 15 14 15 14 16 15 17 17 17 17 16 17 18 18 18 19 19 19 18 18 17 18 18 18 18 18 18 18 18 17 18 19 20 20 25 29 29 32 34
21 19 16 17 15 14 15 15 16 15 16 16 19 20 17 18 19 19 20 20 21 20 19 17 17 17 17 17 18 18 18 17 17 16 17 18 19 21 24 27 27 32 34 38
19 18 17 16 15 17 15 13 14 17 18 19 20 20 19 18 17 16 16 15 12 11 11 12 13 13 14 15 16 16 16 16 16 16 17 18 20 23 25 27 32 34 37 37
21 18 17 17 18 17 14 14 14 14 20 16 19 17 15 13 13 12 11 10 10 9 9 9 10 11 12 13 14 14 14 14 15 16 18 20 22 25 28 32 34 35 36 38
21 19 19 16 17 19 16 17 15 14 18 16 15 16 14 12 12 12 11 10 9 9 9 9 10 10 10 11 12 12 13 14 15 17 20 22 25 28 31 33 35 35 36 38
20 19 21 19 19 20 16 13 13 13 18 13 15 13 14 14 13 11 11 10 10 10 9 9 9 9 9 10 11 11 13 15 17 20 22 25 28 30 32 33 34 35 37 39
22 21 20 18 19 21 15 14 17 17 14 14 13 13 12 11 11 11 11 11 10 9 9 9 9 9 10 10 11 13 15 18 20 23 25 27 29 30 32 33 35 37 39 41
21 22 21 23 22 21 20 19 20 17 16 16 14 13 12 12 12 12 12 11 11 10 10 10 10 10 11 13 14 16 18 20 22 25 26 27 29 31 32 34 36 38 40 42
27 22 22 20 22 22 21 20 19 20 19 18 16 15 15 14 14 13 13 13 12 12 12 12 12 13 14 15 17 19 21 23 25 25 27 29 30 32 34 36 37 39 40 43
22 23 23 24 23 20 22 23 21 21 19 17 16 16 16 15 16 15 15 15 14 14 14 14 15 16 17 18 20 22 24 25 25 26 27 29 31 33 35 36 37 39 41 43
25 24 22 24 23 22 21 21 27 25 22 19 17 16 17 17 16 16 16 16 15 15 16 16 17 18 19 21 22 23 25 25 26 27 29 31 32 34 36 37 38 39 41 44
Wind_Direction
291 273 251 227 232 251 221 231 253 241 248 229 231 229 210 198 195 190 177 160 155 164 164 168 172 174 177 180 183 188 191 193 191 192 196 204 210 215 217 218 224 229 238 251
273 261 253 228 233 218 242 246 247 278 232 218 227 238 222 210 217 205 193 191 184 176 178 180 183 187 192 197 201 203 204 201 202 207 211 218 220 221 222 225 230 239 249 258
246 262 235 228 226 217 228 214 221 247 240 234 239 241 224 229 231 223 217 210 204 199 195 193 194 197 201 204 206 208 210 211 215 218 219 224 223 223 228 232 239 250 257 264
254 252 237 228 216 206 231 217 215 234 225 239 249 253 244 231 229 232 228 219 216 211 211 209 208 210 212 215 218 220 221 222 224 225 227 228 229 231 238 242 249 258 263 268
240 223 227 219 218 212 231 215 229 227 221 246 249 258 257 238 232 237 233 227 225 222 219 217 217 219 220 221 224 227 229 230 231 232 233 235 237 242 249 248 255 264 267 271
236 245 228 216 215 222 216 223 245 225 230 248 255 253 252 245 245 260 246 234 232 230 228 226 225 223 226 228 231 231 233 235 235 233 237 240 243 249 253 249 260 263 269 275
239 239 236 229 228 235 225 227 240 232 238 243 230 245 255 274 267 263 265 241 238 234 230 229 229 229 230 232 232 234 233 236 237 238 243 246 249 252 256 254 262 263 272 277
227 245 226 228 229 228 223 226 229 233 238 248 266 264 264 264 281 273 269 263 248 235 231 232 232 231 232 232 233 236 236 236 238 247 247 250 252 256 256 259 264 269 275 280
223 242 236 231 227 226 232 237 245 240 270 266 272 286 283 261 276 288 269 262 254 238 234 233 231 231 232 233 235 234 237 243 251 252 252 254 256 257 256 259 267 273 277 279
228 238 237 230 225 234 234 221 244 261 255 265 268 285 279 280 283 290 282 272 263 251 241 237 233 231 233 235 236 239 243 249 254 258 258 258 256 256 257 262 268 274 275 282
227 238 242 232 233 226 233 241 254 256 262 269 275 272 267 274 275 278 281 277 272 256 245 240 239 236 235 237 238 239 245 253 258 261 261 258 257 257 259 260 270 275 279 282
224 234 238 236 243 243 241 243 246 253 260 269 272 268 276 269 270 274 273 274 273 264 257 250 244 241 239 240 241 242 248 254 260 262 260 260 259 257 258 264 272 277 282 289
219 234 239 250 251 250 247 247 251 259 269 260 261 262 272 275 278 276 270 268 267 268 269 261 252 247 243 243 246 246 250 254 259 261 263 263 264 258 265 268 264 278 287 292
219 231 233 242 246 246 249 250 248 250 260 265 262 264 268 270 274 279 279 271 273 273 271 261 254 251 249 249 250 248 254 258 261 262 267 266 261 263 270 274 261 287 293 294
223 230 234 246 254 249 254 252 240 244 257 256 264 257 265 267 269 275 283 277 277 273 270 266 257 251 249 250 251 250 256 261 265 267 267 265 267 270 272 269 281 293 292 296
229 236 236 244 250 247 257 258 250 254 262 263 266 266 267 269 272 274 279 282 280 278 272 264 258 252 249 250 252 256 258 263 267 267 265 267 272 272 272 282 290 291 295 298
228 229 234 246 250 248 270 251 250 259 262 262 261 271 275 271 271 275 279 281 281 279 273 264 258 252 250 252 252 257 260 264 267 265 269 272 273 276 283 288 288 295 297 301
226 228 237 243 247 249 261 261 258 260 268 267 272 272 273 274 273 276 280 279 281 278 271 263 259 254 253 253 255 257 260 264 265 268 272 275 279 286 290 292 296 297 300 301
228 228 236 239 246 262 259 252 253 263 273 270 268 269 271 265 265 269 270 274 277 276 275 270 264 260 258 258 257 258 261 265 269 272 277 282 287 290 294 297 298 300 301 302
228 234 237 242 244 247 255 260 257 266 274 280 264 261 256 250 260 261 259 265 270 274 274 271 269 266 264 262 259 261 267 271 275 279 284 288 291 294 297 300 300 301 302 303
228 234 234 242 251 262 260 254 249 257 276 277 272 264 243 251 264 253 253 262 268 270 272 272 272 272 268 264 264 270 274 279 282 286 289 293 296 298 301 302 302 303 304 305
227 228 237 243 251 255 248 253 248 264 268 278 273 261 249 251 248 248 251 256 261 264 267 270 270 273 273 270 273 279 283 286 288 292 295 297 299 301 302 303 304 306 306 306
238 235 239 239 248 254 246 258 259 258 266 271 266 256 243 240 247 245 248 253 259 262 266 269 272 276 280 281 282 287 288 290 293 296 298 300 301 303 304 306 307 307 308 308
240 241 243 246 249 253 257 260 261 258 264 268 262 246 241 243 241 244 249 253 258 261 266 269 273 278 283 286 291 292 293 294 296 298 300 301 303 304 306 307 308 309 310 311
239 232 238 249 253 260 262 260 260 259 262 259 253 247 243 239 243 245 248 253 257 262 267 271 275 279 284 288 293 295 296 296 297 299 301 303 304 306 308 309 309 310 311 313
237 237 240 245 254 256 257 260 253 253 255 248 244 245 245 245 245 246 251 255 259 264 268 273 276 280 285 290 293 296 297 298 299 300 302 304 306 307 308 309 310 311 313 314